| time (UTC) | temp C | wind direction | speed KPH | gust KPH | rain 1hr cm | rain 24hr cm | rain mn cm | humidity % | barometer mb |
| 20260901124603 | 1 | 0 | 0.0 | 3.2 | 0.00 | 1.12 | 0.00 | 93 | 1006.5 |
| 20260901123053 | 1 | 260 | 0.0 | 9.7 | 0.00 | 1.12 | 0.00 | 93 | 1006.6 |
| 20260901121554 | 1 | 257 | 0.0 | 4.8 | 0.00 | 1.12 | 0.00 | 92 | 1006.5 |
| 20260901120120 | 1 | 138 | 0.0 | 4.8 | 0.00 | 1.12 | 0.00 | 92 | 1006.4 |
| 20260901114556 | 2 | 34 | 0.0 | 3.2 | 0.00 | 1.12 | 0.00 | 91 | 1006.4 |
| 20260901113059 | 2 | 171 | 1.6 | 4.8 | 0.00 | 1.12 | 0.00 | 91 | 1006.3 |
| 20260901111553 | 2 | 265 | 1.6 | 3.2 | 0.00 | 1.12 | 0.00 | 91 | 1006.3 |
| 20260901110055 | 2 | 319 | 0.0 | 3.2 | 0.00 | 1.12 | 0.00 | 90 | 1006.2 |
| 20260901104601 | 3 | 0 | 0.0 | 3.2 | 0.00 | 1.12 | 0.00 | 89 | 1006.2 |
| 20260901103054 | 3 | 0 | 0.0 | 3.2 | 0.00 | 1.12 | 0.00 | 88 | 1006.1 |
| 20260901101554 | 4 | 352 | 0.0 | 4.8 | 0.00 | 1.12 | 0.00 | 87 | 1006.0 |
| 20260901100055 | 5 | 105 | 0.0 | 3.2 | 0.00 | 1.12 | 0.00 | 84 | 1006.0 |
| 20260901094552 | 6 | 0 | 0.0 | 3.2 | 0.00 | 1.12 | 0.00 | 83 | 1005.9 |
| 20260901093053 | 6 | 61 | 1.6 | 12.9 | 0.00 | 1.12 | 0.00 | 84 | 1006.0 |
| 20260901091602 | 6 | 335 | 6.4 | 20.9 | 0.00 | 1.12 | 0.00 | 89 | 1005.8 |
| 20260901090054 | 5 | 306 | 3.2 | 11.3 | 0.00 | 1.12 | 0.00 | 92 | 1005.6 |
| 20260901084549 | 5 | 303 | 1.6 | 9.7 | 0.00 | 1.12 | 0.00 | 92 | 1005.7 |
| 20260901083100 | 5 | 301 | 1.6 | 4.8 | 0.00 | 1.12 | 0.00 | 93 | 1005.5 |
| 20260901081555 | 4 | 352 | 4.8 | 11.3 | 0.00 | 1.12 | 0.00 | 93 | 1005.4 |
| 20260901080052 | 4 | 346 | 1.6 | 4.8 | 0.00 | 1.12 | 0.00 | 92 | 1005.2 |
| 20260901074551 | 5 | 0 | 0.0 | 4.8 | 0.00 | 1.14 | 1.12 | 92 | 1005.3 |
| 20260901073058 | 5 | 342 | 1.6 | 4.8 | 0.00 | 1.14 | 1.12 | 92 | 1005.3 |
| 20260901071604 | 5 | 0 | 0.0 | 3.2 | 0.00 | 1.14 | 1.12 | 91 | 1005.3 |
| 20260901070059 | 5 | 0 | 1.6 | 4.8 | 0.00 | 1.14 | 1.12 | 91 | 1005.2 |
| 20260901064555 | 5 | 344 | 0.0 | 3.2 | 0.00 | 1.24 | 1.12 | 91 | 1005.1 |
| 20260901063053 | 6 | 340 | 0.0 | 4.8 | 0.00 | 1.24 | 1.12 | 91 | 1005.0 |
| 20260901061555 | 6 | 292 | 1.6 | 4.8 | 0.00 | 1.24 | 1.12 | 90 | 1004.7 |
| 20260901060105 | 6 | 298 | 0.0 | 3.2 | 0.00 | 1.24 | 1.12 | 89 | 1004.5 |
| 20260901054553 | 7 | 284 | 3.2 | 6.4 | 0.00 | 1.30 | 1.12 | 89 | 1004.4 |
| 20260901053055 | 7 | 340 | 1.6 | 4.8 | 0.00 | 1.30 | 1.12 | 87 | 1004.2 |
| 20260901051600 | 7 | 339 | 1.6 | 3.2 | 0.00 | 1.30 | 1.12 | 86 | 1004.1 |
| 20260901050055 | 8 | 0 | 0.0 | 6.4 | 0.00 | 1.30 | 1.12 | 84 | 1003.9 |
| 20260901044551 | 9 | 315 | 1.6 | 6.4 | 0.00 | 1.32 | 1.12 | 81 | 1003.7 |
| 20260901043113 | 10 | 286 | 1.6 | 6.4 | 0.00 | 1.32 | 1.12 | 80 | 1003.8 |
| 20260901041551 | 10 | 232 | 3.2 | 4.8 | 0.00 | 1.32 | 1.12 | 80 | 1003.8 |
| 20260901040116 | 10 | 261 | 1.6 | 3.2 | 0.00 | 1.32 | 1.12 | 79 | 1003.5 |
| 20260901034600 | 11 | 225 | 1.6 | 3.2 | 0.00 | 1.32 | 1.12 | 73 | 1003.5 |
| 20260901033108 | 11 | 0 | 0.0 | 1.6 | 0.00 | 1.32 | 1.12 | 72 | 1003.3 |
| 20260901031605 | 12 | 110 | 0.0 | 3.2 | 0.00 | 1.32 | 1.12 | 69 | 1003.2 |
| 20260901030057 | 13 | 0 | 0.0 | 4.8 | 0.00 | 1.32 | 1.12 | 68 | 1003.1 |
| 20260901024553 | 12 | 278 | 0.0 | 4.8 | 0.00 | 1.32 | 1.12 | 70 | 1002.9 |
| 20260901023102 | 12 | 99 | 1.6 | 6.4 | 0.00 | 1.32 | 1.12 | 69 | 1002.9 |
| 20260901021556 | 12 | 208 | 1.6 | 9.7 | 0.00 | 1.32 | 1.12 | 72 | 1002.7 |
| 20260901020054 | 11 | 0 | 3.2 | 8.0 | 0.00 | 1.32 | 1.12 | 71 | 1002.5 |
| 20260901014600 | 11 | 71 | 3.2 | 6.4 | 0.00 | 1.32 | 1.12 | 71 | 1002.5 |
| 20260901013051 | 10 | 80 | 1.6 | 11.3 | 0.00 | 1.32 | 1.12 | 72 | 1002.5 |
| 20260901011555 | 10 | 60 | 3.2 | 14.5 | 0.00 | 1.32 | 1.12 | 74 | 1002.4 |
| 20260901004606 | 10 | 86 | 6.4 | 12.9 | 0.00 | 1.32 | 1.12 | 77 | 1002.3 |
| 20260901003101 | 10 | 11 | 4.8 | 14.5 | 0.00 | 1.32 | 1.12 | 75 | 1002.3 |
| 20260901001604 | 11 | 343 | 4.8 | 11.3 | 0.00 | 1.32 | 1.12 | 75 | 1002.1 |
| 20260901000058 | 10 | 42 | 1.6 | 6.4 | 0.00 | 1.32 | 1.12 | 75 | 1002.0 |
| 20260831234554 | 10 | 5 | 1.6 | 9.7 | 0.00 | 1.32 | 1.12 | 76 | 1001.9 |
| 20260831233054 | 10 | 19 | 1.6 | 11.3 | 0.00 | 1.32 | 1.12 | 76 | 1001.9 |
| 20260831231548 | 11 | 315 | 3.2 | 9.7 | 0.00 | 1.32 | 1.12 | 76 | 1001.8 |
| 20260831230058 | 10 | 190 | 1.6 | 8.0 | 0.00 | 1.32 | 1.12 | 80 | 1001.9 |
| 20260831224557 | 10 | 109 | 1.6 | 9.7 | 0.00 | 1.32 | 1.12 | 80 | 1001.8 |
| 20260831223058 | 9 | 144 | 3.2 | 12.9 | 0.00 | 1.32 | 1.12 | 84 | 1001.9 |
| 20260831221603 | 8 | 180 | 4.8 | 16.1 | 0.00 | 1.32 | 1.12 | 86 | 1001.9 |
| 20260831220054 | 7 | 184 | 6.4 | 16.1 | 0.00 | 1.32 | 1.12 | 87 | 1002.0 |
| 20260831214556 | 7 | 163 | 6.4 | 12.9 | 0.03 | 1.32 | 1.12 | 88 | 1001.9 |
| 20260831213056 | 6 | 144 | 3.2 | 11.3 | 0.03 | 1.32 | 1.12 | 89 | 1001.9 |
| 20260831211558 | 6 | 148 | 4.8 | 14.5 | 0.03 | 1.32 | 1.12 | 88 | 1001.9 |
| 20260831210054 | 6 | 202 | 4.8 | 12.9 | 0.03 | 1.32 | 1.12 | 89 | 1001.9 |
| 20260831204554 | 6 | 158 | 6.4 | 14.5 | 0.00 | 1.32 | 1.09 | 88 | 1001.9 |
| 20260831203102 | 6 | 157 | 6.4 | 14.5 | 0.00 | 1.32 | 1.09 | 89 | 1001.8 |
| 20260831201557 | 6 | 181 | 4.8 | 12.9 | 0.00 | 1.32 | 1.09 | 88 | 1001.8 |
| 20260831200056 | 6 | 176 | 4.8 | 12.9 | 0.03 | 1.32 | 1.09 | 90 | 1001.7 |
| 20260831194605 | 6 | 193 | 1.6 | 8.0 | 0.08 | 1.32 | 1.09 | 92 | 1001.8 |
| 20260831193053 | 6 | 178 | 1.6 | 9.7 | 0.10 | 1.32 | 1.09 | 92 | 1001.7 |
| 20260831191558 | 5 | 275 | 1.6 | 8.0 | 0.10 | 1.32 | 1.09 | 91 | 1001.8 |
| 20260831190108 | 5 | 339 | 0.0 | 6.4 | 0.08 | 1.30 | 1.07 | 92 | 1001.8 |
| 20260831184557 | 5 | 350 | 1.6 | 6.4 | 0.03 | 1.24 | 1.02 | 92 | 1001.8 |
| 20260831183050 | 5 | 258 | 0.0 | 6.4 | 0.00 | 1.22 | 0.99 | 91 | 1001.9 |
| 20260831181600 | 5 | 236 | 0.0 | 8.0 | 0.00 | 1.22 | 0.99 | 91 | 1001.9 |
| 20260831180054 | 5 | 225 | 0.0 | 9.7 | 0.00 | 1.22 | 0.99 | 91 | 1001.7 |
| 20260831174559 | 5 | 200 | 1.6 | 4.8 | 0.00 | 1.22 | 0.99 | 91 | 1001.9 |
| 20260831173115 | 5 | 236 | 0.0 | 9.7 | 0.00 | 1.22 | 0.99 | 91 | 1001.7 |
| 20260831171555 | 5 | 238 | 3.2 | 12.9 | 0.00 | 1.22 | 0.99 | 91 | 1001.6 |
| 20260831170055 | 5 | 198 | 4.8 | 16.1 | 0.03 | 1.22 | 0.99 | 91 | 1001.5 |
| 20260831164605 | 5 | 185 | 3.2 | 12.9 | 0.08 | 1.22 | 0.99 | 91 | 1001.5 |
| 20260831163057 | 5 | 184 | 6.4 | 16.1 | 0.23 | 1.22 | 0.99 | 91 | 1001.6 |
| 20260831161553 | 5 | 165 | 1.6 | 11.3 | 0.30 | 1.22 | 0.99 | 90 | 1001.6 |
| 20260831160105 | 5 | 28 | 6.4 | 17.7 | 0.38 | 1.19 | 0.97 | 90 | 1001.8 |
| 20260831154623 | 5 | 303 | 4.8 | 24.1 | 0.38 | 1.14 | 0.91 | 90 | 1001.9 |
| 20260831153053 | 5 | 270 | 6.4 | 19.3 | 0.30 | 0.99 | 0.76 | 90 | 1002.1 |
| 20260831151552 | 5 | 184 | 8.0 | 33.8 | 0.25 | 0.91 | 0.69 | 89 | 1002.3 |
| 20260831150051 | 5 | 175 | 9.7 | 29.0 | 0.18 | 0.81 | 0.58 | 89 | 1002.0 |
| 20260831144556 | 5 | 175 | 6.4 | 27.4 | 0.15 | 0.76 | 0.53 | 88 | 1001.8 |
| 20260831143057 | 5 | 256 | 6.4 | 17.7 | 0.13 | 0.69 | 0.46 | 89 | 1001.5 |
| 20260831141558 | 5 | 169 | 9.7 | 24.1 | 0.23 | 0.66 | 0.43 | 89 | 1001.6 |
| 20260831140101 | 5 | 276 | 8.0 | 24.1 | 0.23 | 0.64 | 0.41 | 89 | 1001.4 |
| 20260831134558 | 6 | 312 | 8.0 | 32.2 | 0.30 | 0.61 | 0.38 | 89 | 1001.3 |
| 20260831133055 | 8 | 199 | 8.0 | 19.3 | 0.30 | 0.56 | 0.33 | 92 | 1001.5 |
| 20260831131550 | 8 | 0 | 1.6 | 4.8 | 0.20 | 0.43 | 0.20 | 93 | 1001.3 |
| 20260831130059 | 8 | 0 | 3.2 | 4.8 | 0.15 | 0.38 | 0.15 | 92 | 1001.5 |